カタログに戻る

STARLINK-5592

運用中通信VLEO
NORAD 55741·PAYLOAD·🇺🇸 United States

打ち上げ Mar 3, 2023 から Vandenberg Space Force Base

Loading…

次のパス (今後24時間)

TLE

最新Source: CelesTrak SupGP

元期: Sep 15, 2026, 01:45 UTC

1 55741C 23028A   26258.07340278  .00631480  00000+0  52190-1 0  2588
2 55741  69.9998 127.0711 0003151 270.9813 142.7919 14.98549786    18

AllMySatでSTARLINK-5592をリアルタイム追跡

Download on the App Store